When you browse on this site, cookies collect data to enhance your experience and personalize the content and advertising you see.
Visit our Privacy Policy to learn more. By continuing to use the site, you agree to this use of cookies and data.

Hourly Weather Yurevo-Deviche

Today, 10 July, Friday

Time Temperature Precipitation Wind Pressure Humidity
00:00 +10°C° 0 mm 2 mps 748 mmHg 92%
01:00 +10°C° 0 mm 2 mps 748 mmHg 92%
02:00 +9°C° 0 mm 2 mps 748 mmHg 92%
03:00 +10°C° 0 mm 2 mps 749 mmHg 90%
04:00 +10°C° 0 mm 2 mps 749 mmHg 88%
05:00 +10°C° 0 mm 2 mps 749 mmHg 86%
06:00 +14°C° 0 mm 2 mps 749 mmHg 78%
07:00 +16°C° 0 mm 2 mps 750 mmHg 69%
08:00 +18°C° 0 mm 2 mps 750 mmHg 61%
09:00 +19°C° 0 mm 2 mps 750 mmHg 56%
10:00 +20°C° 0 mm 2 mps 750 mmHg 51%
11:00 +21°C° 0 mm 3 mps 750 mmHg 46%
12:00 +21°C° 0 mm 3 mps 750 mmHg 46%
13:00 +22°C° 0 mm 3 mps 750 mmHg 46%
14:00 +22°C° 0 mm 3 mps 749 mmHg 46%
15:00 +22°C° 0 mm 3 mps 749 mmHg 49%
16:00 +21°C° 0 mm 3 mps 749 mmHg 53%
17:00 +21°C° 0 mm 3 mps 749 mmHg 56%
18:00 +20°C° 0 mm 2 mps 749 mmHg 61%
19:00 +19°C° 0 mm 2 mps 749 mmHg 66%
20:00 +17°C° 0 mm 2 mps 749 mmHg 71%
21:00 +17°C° 0 mm 2 mps 749 mmHg 69%
22:00 +17°C° 0 mm 3 mps 749 mmHg 67%
23:00 +18°C° 0 mm 4 mps 749 mmHg 65%

Tomorrow, 11 July, Saturday

Time Temperature Precipitation Wind Pressure Humidity
00:00 +17°C° 0 mm 4 mps 749 mmHg 68%
01:00 +17°C° 0 mm 4 mps 749 mmHg 70%
02:00 +17°C° 0 mm 4 mps 748 mmHg 73%
03:00 +17°C° 0.1 mm 4 mps 748 mmHg 78%
04:00 +17°C° 0.1 mm 4 mps 748 mmHg 84%
05:00 +15°C° 0.1 mm 4 mps 748 mmHg 90%
06:00 +17°C° 0 mm 4 mps 748 mmHg 88%
07:00 +18°C° 0 mm 4 mps 748 mmHg 86%
08:00 +18°C° 0 mm 4 mps 748 mmHg 85%
09:00 +20°C° 0 mm 4 mps 748 mmHg 80%
10:00 +22°C° 0 mm 5 mps 748 mmHg 75%
11:00 +23°C° 0 mm 5 mps 748 mmHg 70%
12:00 +26°C° 0 mm 5 mps 747 mmHg 67%
13:00 +27°C° 0 mm 6 mps 747 mmHg 64%
14:00 +28°C° 0 mm 6 mps 747 mmHg 61%
15:00 +27°C° 0.8 mm 5 mps 747 mmHg 69%
16:00 +26°C° 0.8 mm 5 mps 747 mmHg 78%
17:00 +25°C° 0.8 mm 5 mps 746 mmHg 86%
18:00 +23°C° 0.3 mm 4 mps 747 mmHg 89%
19:00 +22°C° 0.3 mm 3 mps 747 mmHg 92%
20:00 +22°C° 0.3 mm 3 mps 747 mmHg 94%
21:00 +21°C° 0 mm 3 mps 747 mmHg 94%
22:00 +20°C° 0 mm 2 mps 748 mmHg 94%
23:00 +20°C° 0 mm 2 mps 748 mmHg 95%

Day after tomorrow, 12 July, Sunday

Time Temperature Precipitation Wind Pressure Humidity
00:00 +18°C° 0 mm 2 mps 748 mmHg 93%
01:00 +17°C° 0 mm 2 mps 748 mmHg 91%
02:00 +15°C° 0 mm 2 mps 748 mmHg 89%
03:00 +15°C° 0 mm 1 mps 748 mmHg 88%
04:00 +15°C° 0 mm 1 mps 748 mmHg 87%
05:00 +16°C° 0 mm 1 mps 748 mmHg 86%
06:00 +18°C° 0.1 mm 1 mps 749 mmHg 80%
07:00 +19°C° 0.1 mm 1 mps 749 mmHg 74%
08:00 +20°C° 0.1 mm 1 mps 749 mmHg 68%
09:00 +20°C° 0 mm 1 mps 749 mmHg 68%
10:00 +20°C° 0 mm 1 mps 749 mmHg 67%
11:00 +19°C° 0 mm 2 mps 749 mmHg 67%
12:00 +19°C° 0 mm 2 mps 749 mmHg 66%
13:00 +19°C° 0 mm 2 mps 749 mmHg 66%
14:00 +19°C° 0 mm 3 mps 749 mmHg 66%
15:00 +19°C° 0 mm 3 mps 749 mmHg 68%
16:00 +19°C° 0 mm 3 mps 748 mmHg 70%
17:00 +18°C° 0 mm 3 mps 748 mmHg 72%
18:00 +17°C° 0 mm 3 mps 748 mmHg 75%
19:00 +17°C° 0 mm 3 mps 748 mmHg 77%
20:00 +16°C° 0 mm 3 mps 748 mmHg 80%
21:00 +14°C° 0.2 mm 3 mps 747 mmHg 81%
22:00 +14°C° 0.2 mm 3 mps 747 mmHg 82%
23:00 +13°C° 0.2 mm 3 mps 747 mmHg 84%

13 July, Monday

Time Temperature Precipitation Wind Pressure Humidity
00:00 +13°C° 0.7 mm 3 mps 747 mmHg 88%
01:00 +13°C° 0.7 mm 3 mps 746 mmHg 92%
02:00 +12°C° 0.7 mm 3 mps 746 mmHg 95%
03:00 +12°C° 0 mm 3 mps 746 mmHg 95%
04:00 +12°C° 0 mm 3 mps 745 mmHg 95%
05:00 +12°C° 0 mm 3 mps 745 mmHg 95%
06:00 +13°C° 0 mm 3 mps 745 mmHg 94%
07:00 +13°C° 0 mm 3 mps 745 mmHg 93%
08:00 +14°C° 0 mm 3 mps 744 mmHg 93%
09:00 +15°C° 0 mm 2 mps 744 mmHg 91%
10:00 +16°C° 0 mm 2 mps 744 mmHg 90%
11:00 +16°C° 0 mm 2 mps 744 mmHg 89%
12:00 +17°C° 0 mm 2 mps 743 mmHg 86%
13:00 +18°C° 0 mm 3 mps 743 mmHg 82%
14:00 +19°C° 0 mm 3 mps 743 mmHg 79%
15:00 +19°C° 0.1 mm 3 mps 742 mmHg 81%
16:00 +18°C° 0.1 mm 3 mps 742 mmHg 83%
17:00 +18°C° 0.1 mm 4 mps 741 mmHg 86%
18:00 +17°C° 0.6 mm 3 mps 741 mmHg 89%
19:00 +16°C° 0.6 mm 3 mps 741 mmHg 92%
20:00 +16°C° 0.6 mm 3 mps 741 mmHg 94%
21:00 +14°C° 1.4 mm 3 mps 740 mmHg 95%
22:00 +14°C° 1.4 mm 4 mps 740 mmHg 96%
23:00 +14°C° 1.4 mm 4 mps 739 mmHg 97%

14 July, Tuesday

Time Temperature Precipitation Wind Pressure Humidity
00:00 +14°C° 1.1 mm 4 mps 739 mmHg 97%
01:00 +14°C° 1.1 mm 4 mps 739 mmHg 97%
02:00 +13°C° 1.1 mm 4 mps 739 mmHg 97%
03:00 +13°C° 0.6 mm 4 mps 738 mmHg 97%
04:00 +13°C° 0.6 mm 4 mps 738 mmHg 97%
05:00 +13°C° 0.6 mm 4 mps 738 mmHg 96%
06:00 +13°C° 0.4 mm 4 mps 738 mmHg 96%
07:00 +13°C° 0.4 mm 4 mps 738 mmHg 96%
08:00 +13°C° 0.4 mm 4 mps 738 mmHg 96%
09:00 +13°C° 1.5 mm 4 mps 738 mmHg 96%
10:00 +13°C° 1.5 mm 4 mps 739 mmHg 96%
11:00 +13°C° 1.5 mm 4 mps 739 mmHg 96%
12:00 +14°C° 0.3 mm 4 mps 739 mmHg 94%
13:00 +14°C° 0.3 mm 4 mps 739 mmHg 93%
14:00 +14°C° 0.3 mm 4 mps 739 mmHg 91%
15:00 +16°C° 0 mm 3 mps 739 mmHg 88%
16:00 +17°C° 0 mm 3 mps 739 mmHg 84%
17:00 +18°C° 0 mm 3 mps 739 mmHg 81%
18:00 +17°C° 0 mm 3 mps 740 mmHg 83%
19:00 +16°C° 0 mm 2 mps 740 mmHg 85%
20:00 +15°C° 0 mm 2 mps 740 mmHg 86%
21:00 +15°C° 0 mm 2 mps 740 mmHg 88%
22:00 +14°C° 0 mm 2 mps 740 mmHg 90%
23:00 +12°C° 0 mm 3 mps 740 mmHg 92%

15 July, Wednesday

Time Temperature Precipitation Wind Pressure Humidity
00:00 +12°C° 0 mm 3 mps 740 mmHg 89%
01:00 +12°C° 0 mm 3 mps 740 mmHg 87%
02:00 +12°C° 0 mm 4 mps 741 mmHg 84%
03:00 +12°C° 0 mm 4 mps 741 mmHg 81%
04:00 +11°C° 0 mm 4 mps 741 mmHg 78%
05:00 +11°C° 0 mm 4 mps 742 mmHg 75%
06:00 +13°C° 0 mm 4 mps 742 mmHg 70%
07:00 +14°C° 0 mm 4 mps 742 mmHg 65%
08:00 +16°C° 0 mm 5 mps 742 mmHg 61%
09:00 +17°C° 0 mm 5 mps 742 mmHg 56%
10:00 +19°C° 0 mm 5 mps 742 mmHg 52%
11:00 +20°C° 0 mm 5 mps 742 mmHg 48%
12:00 +21°C° 0 mm 5 mps 743 mmHg 48%
13:00 +21°C° 0 mm 5 mps 743 mmHg 49%
14:00 +21°C° 0 mm 5 mps 743 mmHg 50%
15:00 +21°C° 0 mm 4 mps 743 mmHg 54%
16:00 +20°C° 0 mm 4 mps 743 mmHg 59%
17:00 +19°C° 0 mm 3 mps 744 mmHg 63%
18:00 +18°C° 0 mm 3 mps 744 mmHg 71%
19:00 +16°C° 0 mm 3 mps 744 mmHg 78%
20:00 +15°C° 0 mm 2 mps 745 mmHg 85%
21:00 +14°C° 0 mm 2 mps 745 mmHg 89%
22:00 +13°C° 0 mm 2 mps 746 mmHg 92%
23:00 +10°C° 0 mm 2 mps 746 mmHg 95%
Show more